Theta_e
305 305 306 307 308 306 306 308 307 306 307 307 306 305 306 305 304 298 291 295 291 286 286 287 287 283 283 283 279 283 284 285 283 278 275 276 277 277 275 279 278 277 275 275 277 274 271 285 284 280 284 287 289 289
303 304 305 306 306 306 306 306 306 306 306 307 307 307 307 306 305 303 291 295 295 289 286 290 291 291 290 288 285 285 284 285 286 282 280 279 278 277 278 274 279 276 277 274 276 276 283 286 286 288 287 287 288 289
303 303 304 304 305 305 306 307 307 307 308 307 307 307 305 305 305 302 292 292 294 289 287 287 286 291 292 292 293 283 287 289 288 290 285 282 276 278 273 277 277 278 281 278 278 281 283 285 287 287 288 288 291 291
300 300 301 302 303 304 305 305 306 306 305 305 306 305 302 302 303 302 291 292 290 289 281 280 290 287 292 293 292 292 290 291 289 286 284 283 281 282 279 279 278 279 281 279 278 281 283 286 287 287 288 290 290 292
299 300 300 300 301 301 303 304 304 304 304 304 304 304 302 302 302 297 291 292 293 286 275 278 285 289 290 290 291 293 292 290 288 285 283 280 282 282 282 281 278 280 279 278 277 281 282 282 286 287 286 288 290 291
299 299 299 300 300 301 301 303 303 303 304 303 303 303 303 302 300 292 288 289 295 293 285 278 284 285 288 288 290 291 292 291 288 285 282 282 283 283 275 273 280 284 284 285 284 286 285 287 287 288 286 288 290 292
298 299 299 300 300 300 301 303 303 304 304 303 303 303 301 300 293 290 283 288 296 295 285 280 278 283 285 285 284 285 288 288 287 284 281 281 281 283 272 274 282 282 283 284 286 287 284 286 285 288 289 291 294 294
298 298 299 301 301 301 301 302 303 303 302 301 300 300 301 300 296 291 292 298 296 290 287 279 275 277 285 282 281 284 281 283 283 282 283 280 281 283 276 281 284 285 285 285 286 286 286 288 287 288 290 290 290 291
298 298 300 301 300 301 301 302 303 301 301 300 300 299 293 290 285 287 297 298 292 286 279 279 270 274 285 282 283 285 284 281 285 283 283 283 279 277 281 282 283 285 284 285 286 287 286 285 286 287 287 288 289 290
298 297 298 300 300 301 301 301 300 300 300 300 292 287 284 289 297 296 292 287 285 283 283 278 280 275 282 283 282 281 285 280 278 281 285 282 278 284 285 286 286 287 288 288 284 284 284 283 285 286 288 290 291 293
297 297 297 297 298 300 301 300 300 299 296 288 284 283 287 295 292 286 282 281 281 278 281 282 280 278 284 278 278 279 272 269 275 276 281 278 275 281 285 285 287 288 288 288 289 289 289 288 288 288 289 291 293 295
297 296 296 296 296 298 299 299 299 290 287 288 287 291 287 285 281 277 273 275 275 275 277 279 280 280 280 282 279 279 274 278 274 282 279 276 280 285 288 289 290 289 287 287 288 289 289 289 290 290 291 292 293 297
296 295 295 295 296 298 299 299 297 297 294 291 286 277 275 274 271 270 263 266 272 278 278 280 279 280 280 280 275 277 277 275 280 279 275 278 283 287 289 290 291 291 291 291 291 290 290 290 291 291 291 293 295 296
296 296 295 294 295 297 298 298 298 295 288 279 271 273 269 267 271 269 270 270 278 278 277 279 279 279 281 279 276 276 275 273 275 274 275 279 282 285 288 290 290 289 290 292 292 291 290 289 289 290 291 293 295 295
296 296 295 293 295 296 297 298 297 292 285 271 271 269 267 272 268 272 271 271 277 280 280 279 281 280 276 279 278 274 271 273 272 275 278 281 284 284 286 287 288 288 289 292 291 290 291 291 289 290 293 293 294 296
296 295 292 296 296 296 296 296 293 290 284 276 275 273 275 275 270 272 277 274 282 285 285 284 273 271 275 278 275 275 272 272 276 278 280 283 283 283 285 287 288 288 289 290 291 291 291 290 290 290 291 292 293 296
295 288 294 296 296 296 297 289 288 284 280 278 276 280 277 276 273 270 280 283 287 282 280 281 277 276 279 276 273 276 276 278 279 281 282 283 282 284 285 286 287 288 288 288 290 290 290 290 290 290 291 292 293 295
288 290 295 296 294 293 291 289 280 275 275 277 273 277 276 277 276 277 280 282 283 282 280 276 279 275 272 273 274 278 280 281 281 281 282 283 283 283 286 286 286 286 287 288 289 289 289 289 289 289 290 291 292 293
291 291 296 296 291 287 284 283 281 270 275 277 277 278 278 278 279 280 281 283 284 283 280 277 276 273 274 277 278 279 279 280 280 281 283 284 284 284 286 285 285 284 285 285 287 289 289 288 289 289 289 290 290 292
296 295 295 296 292 280 276 280 280 270 271 277 277 277 277 277 279 280 278 278 278 276 276 274 274 277 277 278 280 280 281 281 281 281 283 285 285 284 284 285 285 284 284 285 287 291 288 288 289 289 289 291 290 291
293 292 295 291 286 279 278 278 278 274 278 276 278 278 277 278 278 278 279 280 274 273 276 278 275 278 280 280 281 281 282 282 282 282 283 284 286 285 284 285 284 283 284 285 285 287 288 287 288 288 288 289 290 291
289 293 287 288 282 278 279 282 277 278 277 278 278 278 276 275 277 278 280 276 276 279 280 279 280 280 279 280 282 281 283 283 284 285 288 288 285 284 283 283 283 283 284 285 285 286 287 288 288 288 288 289 290 290
292 288 283 281 277 270 273 282 278 279 273 270 275 272 270 273 277 280 277 278 279 281 281 281 283 282 282 283 282 283 284 285 284 284 285 284 284 285 284 284 284 284 286 287 288 288 291 293 292 290 288 288 289 289
288 278 278 276 269 268 276 275 277 277 277 274 268 266 270 272 278 277 276 277 279 281 281 281 283 282 283 283 282 284 286 286 284 284 284 283 283 285 285 286 287 288 289 289 290 292 292 292 293 291 288 286 287 288
273 271 273 272 275 274 274 274 270 275 273 275 269 267 271 276 271 273 275 277 278 279 279 281 281 283 282 283 284 285 288 287 285 285 286 286 287 287 287 288 289 289 292 290 290 290 291 291 291 290 288 285 286 287
264 267 267 266 270 272 273 272 274 274 275 269 274 277 278 276 269 271 276 278 279 281 281 282 283 284 284 286 285 286 287 287 287 285 287 288 287 287 288 287 288 290 293 291 290 289 290 291 290 289 286 286 290 289
263 264 272 276 275 277 275 278 278 277 276 274 276 276 276 270 270 276 279 280 281 283 285 286 286 286 286 286 286 287 287 288 287 288 288 288 288 289 290 288 287 290 293 292 291 291 291 291 290 288 285 285 286 287
272 275 274 276 277 279 275 277 277 277 278 281 280 276 272 274 275 280 281 283 284 285 285 286 288 289 288 287 287 287 288 288 288 288 288 287 288 289 289 289 290 292 293 294 292 292 293 290 286 285 285 285 286 287
277 280 279 275 278 278 277 278 278 280 281 280 278 276 278 282 283 283 283 283 284 284 284 284 285 286 286 286 287 287 286 286 285 283 282 283 284 286 289 289 289 290 291 292 294 294 294 290 287 286 286 286 286 286
277 281 278 280 278 277 279 280 278 280 280 281 280 279 280 281 281 281 282 282 282 282 284 284 284 284 282 282 282 283 285 286 285 284 282 282 284 287 287 288 288 289 290 291 292 292 294 290 288 285 285 284 285 285
282 282 280 280 278 279 279 280 281 281 280 280 280 279 279 280 281 281 280 280 281 282 281 281 281 281 281 280 280 281 281 284 284 284 285 285 286 287 288 288 289 289 289 290 291 291 291 290 287 284 284 284 285 285
280 280 279 276 277 280 280 279 279 278 277 277 277 278 279 279 278 280 279 279 280 279 281 280 279 279 280 281 281 283 285 285 285 284 285 287 287 288 289 289 290 289 289 289 290 290 290 290 290 287 284 285 285 284
276 277 276 273 271 276 278 275 277 276 278 277 278 279 278 278 277 280 280 279 279 278 278 278 279 279 279 280 283 285 286 285 284 288 288 289 290 289 290 290 290 290 289 288 289 289 289 289 290 289 286 284 287 286
Wind_Speed
12 14 14 14 15 10 15 19 17 22 24 25 25 24 22 21 20 8 4 9 6 5 13 12 13 14 10 9 12 7 8 5 5 5 3 4 5 7 4 5 7 10 8 5 6 6 10 9 2 7 3 4 2 7
12 13 15 16 17 21 24 25 26 26 27 24 25 25 23 23 22 16 4 5 6 5 7 4 10 15 17 21 15 9 10 7 5 5 3 3 4 2 4 5 5 6 9 8 8 8 8 5 6 5 4 5 7 6
13 16 17 18 20 21 21 23 25 26 25 26 25 24 17 19 23 16 4 5 3 5 9 12 14 19 16 18 16 10 5 8 6 3 3 4 6 3 5 5 4 4 4 3 4 8 8 7 6 6 4 8 9 8
13 15 17 20 21 22 23 24 24 21 22 26 24 17 11 15 14 18 5 5 4 2 4 9 4 9 6 9 14 18 16 3 3 1 2 2 2 1 2 2 4 5 7 7 5 7 5 9 8 9 10 11 7 6
17 19 21 23 24 25 26 24 21 19 21 22 19 18 19 22 18 4 2 4 6 5 4 5 7 17 19 16 12 12 13 6 3 2 3 2 2 2 1 2 6 6 7 6 8 6 7 9 8 7 8 15 8 9
20 23 26 28 30 29 28 26 21 22 23 21 20 23 20 17 9 4 2 4 9 6 2 4 5 6 5 6 8 10 10 7 3 2 3 3 3 2 3 5 5 8 7 9 15 10 10 15 13 13 11 19 19 12
23 27 32 34 34 33 30 27 20 17 21 21 22 19 16 11 5 4 6 3 9 5 2 4 5 3 1 2 1 2 4 3 3 3 4 4 2 3 2 6 29 6 7 9 13 13 14 15 14 12 12 16 15 15
25 30 34 31 31 29 28 25 20 22 19 17 18 13 9 9 6 2 3 12 7 3 3 4 6 5 4 3 3 3 3 2 3 3 1 2 2 4 7 22 15 16 12 16 18 15 21 21 11 15 14 12 12 15
24 29 28 22 18 22 25 22 21 21 22 17 16 16 6 3 3 4 6 9 3 4 4 2 3 4 1 1 2 2 3 3 3 4 4 5 4 9 16 10 13 17 9 13 10 18 17 15 18 18 16 15 14 15
21 24 23 16 12 19 22 26 22 19 20 22 6 4 3 3 6 5 3 4 4 5 4 4 2 4 2 2 1 3 2 4 4 5 3 5 6 14 14 15 16 16 16 12 13 14 8 10 16 17 16 13 12 14
20 17 22 4 7 12 29 26 25 24 13 3 3 3 2 4 3 3 3 4 3 3 3 3 6 3 1 3 3 4 4 3 3 4 3 3 5 6 8 10 13 14 15 17 17 18 17 15 13 13 14 12 12 13
16 14 13 9 13 14 17 22 25 6 3 6 6 5 2 2 2 2 2 2 3 5 2 4 4 4 3 1 2 2 3 2 5 2 3 4 4 6 10 14 16 9 8 10 10 16 19 18 16 15 14 13 10 9
12 8 7 9 4 10 19 23 18 25 12 4 4 3 3 2 2 5 6 5 3 4 4 4 4 3 2 1 1 3 4 6 0 3 5 5 4 6 8 11 12 10 8 7 6 8 13 15 14 15 13 12 9 6
9 11 3 5 5 10 17 21 24 12 6 3 5 4 4 4 6 6 6 5 3 3 4 3 2 3 3 3 3 4 5 2 4 5 6 3 4 5 7 9 10 12 9 10 8 11 8 7 9 10 13 10 6 6
8 8 4 5 7 8 11 21 16 4 3 4 5 5 6 5 2 3 3 1 3 3 3 1 2 3 3 4 4 1 2 5 6 5 4 3 4 5 8 11 11 11 9 12 13 8 9 7 5 7 6 7 7 7
9 4 4 7 7 12 13 14 4 2 2 3 3 0 3 2 4 1 4 3 3 3 3 4 4 3 6 4 4 8 4 6 4 3 2 3 5 6 9 12 12 10 8 6 9 7 9 8 7 7 5 6 5 3
10 3 5 8 7 11 18 4 2 3 3 3 4 3 3 2 4 3 3 3 3 1 2 3 7 6 1 3 3 4 6 3 2 3 2 3 6 9 10 11 11 10 7 6 6 6 7 7 5 4 6 5 5 4
4 5 9 10 9 9 2 2 3 3 4 3 2 3 3 3 2 2 3 2 3 2 2 2 3 1 3 3 4 4 2 2 3 3 4 6 6 7 7 8 9 8 7 6 6 5 4 6 6 5 6 5 5 1
6 7 14 16 8 5 3 2 3 4 5 3 3 3 2 2 3 2 2 2 0 1 3 1 2 3 4 4 4 3 2 3 4 3 4 7 7 6 7 6 6 6 7 5 5 4 4 4 4 3 4 4 4 3
16 10 12 15 6 4 3 1 3 3 3 3 2 2 3 3 1 2 2 3 3 3 1 2 5 4 4 4 4 4 3 3 2 5 8 7 5 6 6 6 5 6 6 6 5 5 3 4 0 3 4 4 4 4
13 8 14 6 2 3 3 3 2 4 2 2 2 3 2 0 3 3 3 4 2 4 4 5 5 6 5 4 4 3 5 4 6 5 6 8 7 4 5 5 5 4 3 3 4 6 5 3 3 2 3 3 4 4
4 12 3 2 2 2 1 1 2 2 2 1 1 2 2 2 3 3 2 2 4 5 5 5 5 5 4 6 7 6 7 6 6 6 11 10 7 5 4 4 4 4 3 3 4 5 5 3 3 4 3 4 4 4
11 4 3 3 3 3 2 2 3 3 3 3 1 0 3 2 3 2 2 4 4 5 5 6 7 6 8 6 4 6 6 6 5 5 5 4 4 5 4 5 4 4 4 3 3 4 5 6 4 4 4 4 4 3
6 4 4 2 3 2 1 2 1 2 2 1 1 2 3 3 1 1 5 4 4 3 4 7 4 4 3 4 4 5 4 4 4 4 4 3 4 4 3 3 4 4 5 5 5 6 6 5 6 3 4 4 5 4
7 3 4 2 2 4 4 4 3 3 4 4 2 4 4 3 2 3 5 4 3 4 4 4 4 4 4 3 4 4 4 4 3 3 4 3 3 2 2 3 4 4 4 6 8 7 6 6 5 4 4 4 7 6
3 5 6 7 3 4 6 6 6 5 4 3 5 3 2 2 2 6 4 3 3 2 2 2 1 2 3 4 3 2 2 2 2 2 3 1 2 1 1 4 6 8 3 5 6 7 8 6 6 5 5 8 11 10
3 4 2 3 2 3 2 2 3 3 4 5 3 4 3 4 6 5 3 3 3 2 2 1 2 2 3 3 2 2 2 2 4 4 4 3 3 3 1 4 8 6 4 4 5 6 9 7 5 6 6 5 6 7
4 5 5 6 4 3 4 3 4 6 5 4 3 5 5 6 4 3 3 2 2 2 3 3 2 2 3 2 1 2 1 2 4 3 1 1 0 2 3 5 5 12 6 4 5 6 7 4 6 6 6 6 6 5
3 2 4 4 4 4 5 5 5 4 3 4 4 4 3 3 2 1 1 2 2 2 3 3 3 3 2 3 3 3 2 2 3 3 2 2 3 3 4 6 7 6 5 5 7 5 8 4 3 4 5 5 4 3
3 4 3 2 4 6 5 5 2 2 2 2 1 2 2 2 2 1 1 2 2 2 1 1 2 3 3 3 3 4 3 4 5 3 2 3 4 6 7 6 6 6 5 4 5 4 7 4 3 3 1 1 1 2
2 3 3 3 2 0 1 1 0 0 1 1 1 2 2 3 3 3 3 3 3 3 2 2 3 3 4 4 3 3 3 1 4 4 3 4 4 6 6 6 6 6 5 5 3 3 2 2 2 3 3 3 3 3
1 1 1 1 1 1 1 0 0 1 1 1 1 1 1 1 3 1 3 3 2 3 5 4 4 3 3 3 3 3 6 4 4 4 6 6 6 7 9 6 6 5 5 5 4 3 1 2 2 2 2 4 4 3
0 1 2 2 3 1 1 2 0 1 1 2 1 1 2 2 2 2 1 3 3 3 2 3 3 4 5 4 4 3 1 2 7 10 10 11 11 9 7 7 6 6 6 5 5 4 3 1 1 2 3 2 2 2
Wind_Direction
287 287 282 277 270 223 251 244 243 229 218 212 218 219 220 218 219 187 203 177 176 237 263 248 246 255 258 243 258 279 290 214 189 213 192 204 228 209 191 172 173 178 173 197 198 218 246 227 337 182 206 282 207 312
270 276 276 274 258 255 236 234 233 239 240 228 221 222 222 222 217 200 178 183 192 222 263 266 254 243 239 244 254 251 251 267 248 203 213 246 217 216 192 213 144 212 180 176 168 199 232 218 212 265 130 272 303 315
288 275 282 285 277 266 252 258 243 241 243 238 231 232 224 251 218 213 164 150 165 247 263 256 248 252 240 237 238 252 235 220 227 233 212 200 246 139 172 234 186 221 150 164 130 233 230 249 273 284 299 261 286 288
294 290 290 291 285 274 268 263 262 248 264 269 216 214 243 238 230 208 160 172 135 234 255 273 221 252 227 220 216 218 242 214 306 235 256 287 229 352 222 295 218 193 144 163 242 264 328 280 261 265 283 281 282 243
287 283 286 288 282 281 274 257 260 260 240 220 247 210 204 210 219 196 137 187 168 169 220 272 284 262 248 243 218 199 214 206 223 219 240 234 256 186 258 289 233 192 172 165 228 179 187 234 235 242 261 277 268 287
301 296 290 284 278 270 268 260 257 248 257 194 210 194 195 211 163 93 265 225 196 191 256 282 288 283 245 207 191 203 212 224 225 202 230 261 270 193 207 245 213 176 178 192 243 241 224 251 261 263 262 267 272 266
300 302 294 281 270 262 253 249 242 253 203 192 188 186 189 183 126 165 189 204 162 133 266 263 272 283 289 130 117 142 178 203 195 221 222 197 230 153 113 253 266 162 207 225 238 248 263 244 243 245 237 254 259 264
302 306 295 279 264 249 231 227 213 213 179 172 177 163 171 172 127 227 211 137 119 127 216 247 258 323 184 161 185 173 132 144 227 232 253 204 159 176 245 243 267 261 246 256 250 231 238 256 263 254 248 250 255 264
311 316 307 293 259 216 209 199 179 158 183 151 117 104 77 92 167 218 186 205 137 159 225 228 194 243 114 202 145 158 146 196 220 228 207 183 190 220 233 243 239 248 220 238 230 232 235 238 250 250 250 253 249 264
312 328 329 314 242 212 210 147 158 168 135 117 82 98 154 202 119 153 133 177 187 186 214 223 142 258 156 142 130 128 208 233 244 232 181 227 242 248 264 256 259 260 250 242 245 253 218 228 233 243 244 247 244 251
323 327 340 242 320 232 144 152 154 136 106 80 106 146 215 268 170 196 215 218 155 189 193 204 190 229 206 165 200 185 191 232 248 257 236 258 272 247 260 267 264 257 255 253 244 247 244 238 237 229 241 244 250 247
311 333 23 40 118 137 142 140 128 89 105 126 116 105 104 176 179 202 197 282 195 215 210 190 217 192 280 133 119 225 193 194 249 204 245 256 251 280 331 326 318 303 267 256 248 247 246 239 236 238 241 236 243 217
302 329 37 339 167 159 142 137 114 119 100 67 76 92 88 309 124 163 200 274 239 188 170 185 193 189 215 137 206 146 207 227 289 223 238 230 279 320 330 324 316 311 293 279 335 287 255 246 239 231 230 235 230 225
286 301 55 35 320 151 142 134 133 107 83 104 131 149 161 216 221 197 185 192 226 152 158 170 143 163 180 172 186 202 228 66 218 237 232 235 249 302 333 318 329 328 319 347 343 329 318 249 236 230 231 221 207 220
258 259 196 193 252 142 156 145 135 59 111 121 106 195 212 230 234 232 193 48 238 173 141 108 247 152 200 233 202 168 222 227 218 236 226 236 312 331 324 325 324 319 340 346 326 321 324 333 285 230 224 237 206 194
249 257 220 198 186 161 151 123 78 71 67 119 149 148 222 236 281 215 193 239 206 219 197 176 211 196 211 169 194 209 172 217 242 228 269 332 314 305 305 307 310 309 309 296 297 311 334 346 335 326 277 226 238 165
211 209 218 192 158 143 133 91 99 166 187 204 238 222 196 240 222 229 189 213 164 196 266 189 186 197 142 177 218 194 211 223 212 269 296 298 283 295 293 297 301 306 303 301 313 322 329 335 339 359 13 358 7 129
176 192 189 173 139 107 45 55 103 143 219 199 243 222 210 182 177 213 238 223 169 180 202 235 96 211 214 187 238 241 254 263 245 261 263 268 262 269 278 287 293 297 302 311 305 303 311 336 356 359 341 328 311 306
164 174 177 145 119 108 135 159 126 200 213 176 235 238 229 237 223 216 243 217 190 141 111 37 234 223 230 222 240 255 243 226 261 273 251 267 268 271 285 290 284 289 303 306 296 293 299 308 300 331 321 336 332 320
156 175 168 143 104 93 92 170 96 126 192 215 175 204 213 211 226 192 199 189 145 124 103 211 220 219 207 224 210 231 223 237 270 296 294 288 268 269 274 284 285 289 297 300 290 291 306 313 139 338 333 335 323 328
120 165 123 84 103 88 126 160 225 210 184 190 193 190 243 254 250 221 198 147 95 203 228 219 225 237 219 240 239 242 264 235 252 230 268 288 294 279 283 285 280 282 273 303 300 302 327 301 301 307 307 310 303 306
106 108 99 86 104 71 88 165 194 223 129 206 251 197 233 222 228 226 122 144 219 220 205 204 234 238 243 240 242 201 239 251 254 258 265 266 278 293 301 281 310 292 286 266 264 271 278 282 307 301 303 307 323 308
105 90 81 77 93 56 232 201 192 206 183 244 347 357 276 249 232 108 246 218 245 230 220 226 244 229 240 261 248 246 236 239 255 259 274 267 261 259 256 267 256 261 287 289 263 262 278 289 294 294 294 311 304 297
64 71 106 102 100 202 197 158 157 185 162 215 152 257 244 220 134 224 252 251 236 235 223 237 235 269 264 238 237 244 239 209 251 276 255 250 267 282 251 268 277 267 263 278 298 281 272 266 268 264 274 285 286 276
88 249 124 113 178 138 151 164 179 182 228 209 203 281 251 149 152 229 236 257 235 244 254 252 242 235 239 244 258 253 223 213 237 271 289 235 249 277 341 313 301 280 276 278 287 275 267 263 239 231 255 246 264 270
150 221 144 182 183 152 172 174 204 208 177 207 227 225 141 160 172 246 239 234 234 238 249 233 269 272 241 220 252 276 272 165 179 256 273 268 280 185 23 331 295 283 210 262 278 282 278 261 242 231 254 261 252 255
147 250 223 228 157 155 200 221 177 190 188 209 204 167 163 220 231 247 268 228 227 249 262 286 235 246 271 281 260 246 229 212 221 247 274 263 211 180 171 293 296 301 309 277 290 284 281 272 252 248 241 245 232 228
196 178 179 176 199 211 194 196 187 206 201 190 201 191 207 204 233 229 229 257 241 312 327 326 348 354 334 352 7 355 353 320 311 318 296 359 321 267 301 307 301 304 301 235 223 288 304 267 247 248 239 232 238 211
221 192 148 183 185 185 214 202 212 207 200 165 181 210 233 226 246 201 328 340 330 3 350 355 328 339 16 18 67 8 351 331 15 35 23 325 326 301 333 323 317 317 322 322 319 307 314 307 271 238 239 229 232 208
243 174 219 199 208 197 203 187 227 210 197 201 260 315 303 278 269 15 347 355 358 339 347 330 318 34 45 31 9 10 17 61 47 38 345 314 292 306 309 305 306 312 318 315 314 321 323 343 358 24 47 90 152 165
225 204 217 219 213 231 241 268 242 152 194 218 200 224 256 308 344 32 32 354 6 28 83 60 63 48 31 12 13 1 334 5 4 328 308 283 287 294 299 305 302 301 303 303 315 319 333 331 23 36 70 93 109 148
268 273 140 180 263 336 6 32 251 228 242 207 237 232 287 260 252 117 358 352 95 77 49 50 27 345 344 309 290 270 267 287 301 304 306 319 312 309 308 308 307 304 306 311 314 317 333 27 30 59 50 69 83 119
343 22 47 42 10 155 73 41 16 321 256 267 271 199 223 233 273 80 102 32 81 74 23 334 297 278 276 270 282 276 334 327 314 318 317 318 320 318 307 305 308 302 307 306 306 318 330 16 49 78 123 147 204 191